| time (UTC) | temp F | wind direction | speed MPH | gust MPH | rain 1hr in | rain 24hr in | rain mn in | humidity % | barometer mb |
| 20260905175027 | 83 | 86 | 6.0 | 10.0 | 0.00 | 0.00 | 0.00 | 38 | 1017.6 |
| 20260905174527 | 83 | 76 | 3.0 | 10.0 | 0.00 | 0.00 | 0.00 | 38 | 1017.5 |
| 20260905174027 | 83 | 76 | 5.0 | 13.0 | 0.00 | 0.00 | 0.00 | 38 | 1017.5 |
| 20260905173527 | 83 | 82 | 4.0 | 11.0 | 0.00 | 0.00 | 0.00 | 38 | 1017.4 |
| 20260905173028 | 83 | 71 | 5.0 | 14.0 | 0.00 | 0.00 | 0.00 | 38 | 1017.4 |
| 20260905172527 | 83 | 53 | 6.0 | 14.0 | 0.00 | 0.00 | 0.00 | 37 | 1017.4 |
| 20260905172028 | 84 | 113 | 7.0 | 14.0 | 0.00 | 0.00 | 0.00 | 37 | 1017.4 |
| 20260905171526 | 84 | 108 | 7.0 | 13.0 | 0.00 | 0.00 | 0.00 | 37 | 1017.2 |
| 20260905171029 | 84 | 66 | 8.0 | 13.0 | 0.00 | 0.00 | 0.00 | 37 | 1017.2 |
| 20260905170526 | 84 | 69 | 6.0 | 13.0 | 0.00 | 0.00 | 0.00 | 37 | 1017.2 |
| 20260905170026 | 85 | 98 | 8.0 | 15.0 | 0.00 | 0.00 | 0.00 | 37 | 1017.2 |
| 20260905165525 | 85 | 67 | 9.0 | 15.0 | 0.00 | 0.00 | 0.00 | 37 | 1017.3 |
| 20260905165028 | 85 | 74 | 5.0 | 14.0 | 0.00 | 0.00 | 0.00 | 37 | 1017.3 |
| 20260905164526 | 85 | 69 | 9.0 | 14.0 | 0.00 | 0.00 | 0.00 | 37 | 1017.3 |
| 20260905164025 | 86 | 69 | 6.0 | 13.0 | 0.00 | 0.00 | 0.00 | 37 | 1017.4 |
| 20260905163524 | 86 | 66 | 8.0 | 13.0 | 0.00 | 0.00 | 0.00 | 36 | 1017.4 |
| 20260905163024 | 86 | 83 | 7.0 | 13.0 | 0.00 | 0.00 | 0.00 | 36 | 1017.2 |
| 20260905162526 | 87 | 82 | 9.0 | 13.0 | 0.00 | 0.00 | 0.00 | 35 | 1017.2 |
| 20260905162023 | 87 | 71 | 7.0 | 13.0 | 0.00 | 0.00 | 0.00 | 35 | 1017.2 |
| 20260905161524 | 87 | 73 | 10.0 | 13.0 | 0.00 | 0.00 | 0.00 | 34 | 1017.3 |
| 20260905161026 | 88 | 80 | 6.0 | 13.0 | 0.00 | 0.00 | 0.00 | 33 | 1017.4 |
| 20260905160523 | 88 | 59 | 5.0 | 12.0 | 0.00 | 0.00 | 0.00 | 32 | 1017.4 |
| 20260905160028 | 88 | 38 | 5.0 | 15.0 | 0.00 | 0.00 | 0.00 | 32 | 1017.4 |
| 20260905155522 | 88 | 30 | 10.0 | 19.0 | 0.00 | 0.00 | 0.00 | 32 | 1017.3 |
| 20260905155022 | 88 | 19 | 11.0 | 19.0 | 0.00 | 0.00 | 0.00 | 32 | 1017.3 |
| 20260905154522 | 89 | 36 | 8.0 | 17.0 | 0.00 | 0.00 | 0.00 | 32 | 1017.3 |
| 20260905154022 | 88 | 20 | 9.0 | 18.0 | 0.00 | 0.00 | 0.00 | 32 | 1017.4 |
| 20260905153524 | 88 | 15 | 11.0 | 18.0 | 0.00 | 0.00 | 0.00 | 32 | 1017.4 |
| 20260905153021 | 88 | 20 | 8.0 | 16.0 | 0.00 | 0.00 | 0.00 | 32 | 1017.4 |
| 20260905152522 | 89 | 5 | 9.0 | 18.0 | 0.00 | 0.00 | 0.00 | 32 | 1017.4 |
| 20260905152021 | 89 | 28 | 11.0 | 20.0 | 0.00 | 0.00 | 0.00 | 32 | 1017.4 |
| 20260905151523 | 90 | 77 | 10.0 | 19.0 | 0.00 | 0.00 | 0.00 | 31 | 1017.3 |
| 20260905151023 | 90 | 31 | 6.0 | 22.0 | 0.00 | 0.00 | 0.00 | 31 | 1017.3 |
| 20260905150519 | 90 | 360 | 11.0 | 22.0 | 0.00 | 0.00 | 0.00 | 31 | 1017.3 |
| 20260905150018 | 90 | 38 | 9.0 | 16.0 | 0.00 | 0.00 | 0.00 | 32 | 1017.3 |
| 20260905145516 | 90 | 15 | 11.0 | 16.0 | 0.00 | 0.00 | 0.00 | 32 | 1017.3 |
| 20260905145016 | 90 | 40 | 8.0 | 16.0 | 0.00 | 0.00 | 0.00 | 31 | 1017.3 |
| 20260905144516 | 90 | 68 | 7.0 | 19.0 | 0.00 | 0.00 | 0.00 | 31 | 1017.2 |
| 20260905144015 | 90 | 88 | 9.0 | 18.0 | 0.00 | 0.00 | 0.00 | 31 | 1017.3 |
| 20260905143514 | 90 | 65 | 9.0 | 18.0 | 0.00 | 0.00 | 0.00 | 31 | 1017.3 |
| 20260905143015 | 90 | 360 | 8.0 | 15.0 | 0.00 | 0.00 | 0.00 | 31 | 1017.2 |
| 20260905142513 | 90 | 54 | 11.0 | 15.0 | 0.00 | 0.00 | 0.00 | 31 | 1017.2 |
| 20260905142013 | 90 | 11 | 10.0 | 18.0 | 0.00 | 0.00 | 0.00 | 30 | 1017.3 |
| 20260905141513 | 90 | 53 | 8.0 | 18.0 | 0.00 | 0.00 | 0.00 | 30 | 1017.3 |
| 20260905141011 | 91 | 18 | 9.0 | 14.0 | 0.00 | 0.00 | 0.00 | 31 | 1017.2 |
| 20260905140511 | 90 | 61 | 8.0 | 21.0 | 0.00 | 0.00 | 0.00 | 32 | 1017.2 |
| 20260905140011 | 90 | 40 | 9.0 | 21.0 | 0.00 | 0.00 | 0.00 | 31 | 1017.2 |
| 20260905135510 | 90 | 106 | 7.0 | 17.0 | 0.00 | 0.00 | 0.00 | 32 | 1017.1 |
| 20260905135013 | 90 | 62 | 11.0 | 20.0 | 0.00 | 0.00 | 0.00 | 32 | 1017.1 |
| 20260905134509 | 90 | 75 | 10.0 | 20.0 | 0.00 | 0.00 | 0.00 | 32 | 1017.1 |
| 20260905134007 | 91 | 45 | 10.0 | 17.0 | 0.00 | 0.00 | 0.00 | 32 | 1017.2 |
| 20260905133506 | 90 | 54 | 7.0 | 17.0 | 0.00 | 0.00 | 0.00 | 34 | 1017.2 |
| 20260905133010 | 90 | 98 | 8.0 | 17.0 | 0.00 | 0.00 | 0.00 | 33 | 1017.2 |
| 20260905132505 | 91 | 47 | 8.0 | 17.0 | 0.00 | 0.00 | 0.00 | 34 | 1017.4 |
| 20260905132004 | 90 | 19 | 7.0 | 17.0 | 0.00 | 0.00 | 0.00 | 33 | 1017.3 |
| 20260905131506 | 91 | 29 | 7.0 | 14.0 | 0.00 | 0.00 | 0.00 | 33 | 1017.3 |
| 20260905131002 | 91 | 19 | 5.0 | 15.0 | 0.00 | 0.00 | 0.00 | 33 | 1017.3 |
| 20260905130501 | 91 | 46 | 9.0 | 20.0 | 0.00 | 0.00 | 0.00 | 33 | 1017.3 |
| 20260905130100 | 90 | 15 | 5.0 | 20.0 | 0.00 | 0.00 | 0.00 | 33 | 1017.3 |
| 20260905125601 | 91 | 35 | 9.0 | 19.0 | 0.00 | 0.00 | 0.00 | 33 | 1017.2 |
| 20260905125059 | 90 | 65 | 13.0 | 20.0 | 0.00 | 0.00 | 0.00 | 33 | 1017.3 |
| 20260905124558 | 90 | 91 | 11.0 | 20.0 | 0.00 | 0.00 | 0.00 | 33 | 1017.4 |
| 20260905124057 | 91 | 69 | 11.0 | 17.0 | 0.00 | 0.00 | 0.00 | 33 | 1017.4 |
| 20260905123556 | 90 | 9 | 8.0 | 17.0 | 0.00 | 0.00 | 0.00 | 33 | 1017.3 |
| 20260905123058 | 90 | 65 | 8.0 | 20.0 | 0.00 | 0.00 | 0.00 | 33 | 1017.5 |
| 20260905122554 | 90 | 72 | 12.0 | 23.0 | 0.00 | 0.00 | 0.00 | 33 | 1017.4 |
| 20260905122058 | 90 | 355 | 14.0 | 23.0 | 0.00 | 0.00 | 0.00 | 32 | 1017.6 |
| 20260905121557 | 90 | 98 | 8.0 | 21.0 | 0.00 | 0.00 | 0.00 | 32 | 1017.6 |
| 20260905121052 | 90 | 89 | 10.0 | 21.0 | 0.00 | 0.00 | 0.00 | 33 | 1017.6 |
| 20260905120553 | 90 | 79 | 12.0 | 21.0 | 0.00 | 0.00 | 0.00 | 33 | 1017.6 |
| 20260905120050 | 90 | 49 | 13.0 | 21.0 | 0.00 | 0.00 | 0.00 | 34 | 1017.7 |
| 20260905115549 | 90 | 87 | 13.0 | 23.0 | 0.00 | 0.00 | 0.00 | 34 | 1017.7 |
| 20260905115049 | 89 | 85 | 13.0 | 23.0 | 0.00 | 0.00 | 0.00 | 35 | 1017.7 |
| 20260905114549 | 89 | 78 | 10.0 | 23.0 | 0.00 | 0.00 | 0.00 | 35 | 1017.7 |
| 20260905114047 | 89 | 86 | 11.0 | 20.0 | 0.00 | 0.00 | 0.00 | 34 | 1017.8 |
| 20260905113648 | 89 | 29 | 9.0 | 20.0 | 0.00 | 0.00 | 0.00 | 35 | 1017.8 |
| 20260905113050 | 89 | 126 | 11.0 | 20.0 | 0.00 | 0.00 | 0.00 | 35 | 1017.8 |
| 20260905112547 | 90 | 50 | 12.0 | 20.0 | 0.00 | 0.00 | 0.00 | 34 | 1017.8 |
| 20260905112046 | 89 | 60 | 8.0 | 15.0 | 0.00 | 0.00 | 0.00 | 36 | 1017.7 |
| 20260905111625 | 89 | 82 | 6.0 | 21.0 | 0.00 | 0.00 | 0.00 | 36 | 1017.8 |
| 20260905111044 | 89 | 85 | 14.0 | 21.0 | 0.00 | 0.00 | 0.00 | 35 | 1017.8 |
| 20260905110545 | 89 | 58 | 12.0 | 24.0 | 0.00 | 0.00 | 0.00 | 35 | 1017.8 |
| 20260905110044 | 89 | 67 | 12.0 | 24.0 | 0.00 | 0.00 | 0.00 | 36 | 1017.8 |
| 20260905105543 | 89 | 21 | 12.0 | 22.0 | 0.00 | 0.00 | 0.00 | 35 | 1017.8 |
| 20260905105044 | 89 | 39 | 13.0 | 24.0 | 0.00 | 0.00 | 0.00 | 35 | 1017.8 |
| 20260905104541 | 89 | 105 | 14.0 | 24.0 | 0.00 | 0.00 | 0.00 | 35 | 1017.7 |
| 20260905104044 | 89 | 61 | 10.0 | 22.0 | 0.00 | 0.00 | 0.00 | 35 | 1017.7 |
| 20260905103540 | 89 | 88 | 12.0 | 22.0 | 0.00 | 0.00 | 0.00 | 35 | 1017.7 |
| 20260905103041 | 89 | 18 | 10.0 | 20.0 | 0.00 | 0.00 | 0.00 | 35 | 1017.7 |
| 20260905102539 | 88 | 66 | 10.0 | 22.0 | 0.00 | 0.00 | 0.00 | 35 | 1017.7 |
| 20260905102039 | 89 | 19 | 11.0 | 22.0 | 0.00 | 0.00 | 0.00 | 35 | 1017.8 |
| 20260905101549 | 88 | 67 | 12.0 | 28.0 | 0.00 | 0.00 | 0.00 | 35 | 1017.7 |
| 20260905101038 | 88 | 95 | 17.0 | 28.0 | 0.00 | 0.00 | 0.00 | 35 | 1017.8 |
| 20260905100538 | 88 | 90 | 13.0 | 21.0 | 0.00 | 0.00 | 0.00 | 35 | 1017.8 |
| 20260905100046 | 89 | 360 | 13.0 | 20.0 | 0.00 | 0.00 | 0.00 | 35 | 1017.7 |
| 20260905095537 | 88 | 33 | 13.0 | 26.0 | 0.00 | 0.00 | 0.00 | 35 | 1017.8 |
| 20260905095036 | 88 | 47 | 10.0 | 29.0 | 0.00 | 0.00 | 0.00 | 35 | 1017.8 |
| 20260905094536 | 88 | 32 | 13.0 | 29.0 | 0.00 | 0.00 | 0.00 | 35 | 1017.9 |
| 20260905094035 | 88 | 41 | 11.0 | 24.0 | 0.00 | 0.00 | 0.00 | 35 | 1017.8 |
| 20260905093534 | 88 | 52 | 15.0 | 24.0 | 0.00 | 0.00 | 0.00 | 36 | 1017.9 |
| 20260905093033 | 88 | 68 | 16.0 | 23.0 | 0.00 | 0.00 | 0.00 | 35 | 1017.9 |
| 20260905092533 | 88 | 49 | 12.0 | 22.0 | 0.00 | 0.00 | 0.00 | 36 | 1017.9 |
| 20260905092031 | 87 | 23 | 15.0 | 23.0 | 0.00 | 0.00 | 0.00 | 37 | 1017.9 |
| 20260905091534 | 88 | 5 | 10.0 | 21.0 | 0.00 | 0.00 | 0.00 | 37 | 1018.1 |
| 20260905091029 | 87 | 77 | 13.0 | 26.0 | 0.00 | 0.00 | 0.00 | 37 | 1018.2 |
| 20260905090527 | 87 | 24 | 16.0 | 26.0 | 0.00 | 0.00 | 0.00 | 36 | 1018.2 |
| 20260905090026 | 87 | 5 | 9.0 | 25.0 | 0.00 | 0.00 | 0.00 | 38 | 1018.2 |
| 20260905085530 | 87 | 52 | 10.0 | 25.0 | 0.00 | 0.00 | 0.00 | 38 | 1018.2 |
| 20260905085026 | 87 | 14 | 14.0 | 22.0 | 0.00 | 0.00 | 0.00 | 38 | 1018.1 |
| 20260905084522 | 87 | 355 | 9.0 | 22.0 | 0.00 | 0.00 | 0.00 | 39 | 1018.2 |
| 20260905084021 | 86 | 48 | 12.0 | 22.0 | 0.00 | 0.00 | 0.00 | 39 | 1018.2 |
| 20260905083520 | 86 | 46 | 13.0 | 22.0 | 0.00 | 0.00 | 0.00 | 39 | 1018.3 |
| 20260905083019 | 86 | 32 | 13.0 | 22.0 | 0.00 | 0.00 | 0.00 | 39 | 1018.4 |
| 20260905082517 | 86 | 31 | 16.0 | 23.0 | 0.00 | 0.00 | 0.00 | 39 | 1018.4 |
| 20260905082018 | 86 | 34 | 11.0 | 23.0 | 0.00 | 0.00 | 0.00 | 39 | 1018.3 |
| 20260905081515 | 86 | 75 | 10.0 | 22.0 | 0.00 | 0.00 | 0.00 | 39 | 1018.3 |
| 20260905081014 | 85 | 40 | 13.0 | 24.0 | 0.00 | 0.00 | 0.00 | 39 | 1018.5 |
| 20260905080514 | 85 | 36 | 13.0 | 24.0 | 0.00 | 0.00 | 0.00 | 40 | 1018.4 |
| 20260905080012 | 85 | 5 | 14.0 | 25.0 | 0.00 | 0.00 | 0.00 | 39 | 1018.4 |
| 20260905075511 | 85 | 59 | 14.0 | 25.0 | 0.00 | 0.00 | 0.00 | 39 | 1018.3 |
| 20260905075010 | 85 | 12 | 15.0 | 21.0 | 0.00 | 0.00 | 0.00 | 41 | 1018.2 |
| 20260905074509 | 85 | 19 | 11.0 | 15.0 | 0.00 | 0.00 | 0.00 | 41 | 1018.1 |
| 20260905074006 | 85 | 11 | 9.0 | 19.0 | 0.00 | 0.00 | 0.00 | 41 | 1018.2 |
| 20260905073505 | 84 | 23 | 10.0 | 19.0 | 0.00 | 0.00 | 0.00 | 41 | 1018.2 |
| 20260905073004 | 84 | 16 | 13.0 | 22.0 | 0.00 | 0.00 | 0.00 | 42 | 1018.0 |
| 20260905072505 | 84 | 5 | 12.0 | 22.0 | 0.00 | 0.00 | 0.00 | 42 | 1018.0 |
| 20260905072001 | 84 | 360 | 10.0 | 21.0 | 0.00 | 0.00 | 0.00 | 42 | 1018.1 |
| 20260905071601 | 83 | 46 | 11.0 | 21.0 | 0.00 | 0.00 | 0.00 | 42 | 1017.9 |
| 20260905071102 | 83 | 17 | 9.0 | 21.0 | 0.00 | 0.00 | 0.00 | 42 | 1018.0 |
| 20260905070558 | 83 | 30 | 13.0 | 21.0 | 0.00 | 0.00 | 0.00 | 42 | 1018.0 |
| 20260905070056 | 84 | 32 | 9.0 | 23.0 | 0.00 | 0.00 | 0.00 | 41 | 1017.9 |
| 20260905065554 | 83 | 72 | 11.0 | 23.0 | 0.00 | 0.00 | 0.00 | 42 | 1017.9 |
| 20260905065054 | 84 | 40 | 11.0 | 18.0 | 0.00 | 0.00 | 0.00 | 41 | 1017.9 |
| 20260905064552 | 83 | 16 | 8.0 | 18.0 | 0.00 | 0.00 | 0.00 | 41 | 1017.8 |
| 20260905064050 | 83 | 58 | 6.0 | 21.0 | 0.00 | 0.00 | 0.00 | 42 | 1017.8 |
| 20260905063548 | 83 | 26 | 9.0 | 21.0 | 0.00 | 0.00 | 0.00 | 42 | 1017.8 |
| 20260905063047 | 83 | 73 | 11.0 | 20.0 | 0.00 | 0.00 | 0.00 | 42 | 1017.7 |
| 20260905062545 | 83 | 336 | 8.0 | 20.0 | 0.00 | 0.00 | 0.00 | 44 | 1017.7 |
| 20260905062044 | 82 | 36 | 13.0 | 20.0 | 0.00 | 0.00 | 0.00 | 43 | 1017.8 |
| 20260905061544 | 82 | 49 | 13.0 | 20.0 | 0.00 | 0.00 | 0.00 | 44 | 1017.8 |
| 20260905061042 | 82 | 57 | 13.0 | 20.0 | 0.00 | 0.00 | 0.00 | 44 | 1017.8 |
| 20260905060541 | 82 | 15 | 8.0 | 19.0 | 0.00 | 0.00 | 0.00 | 44 | 1017.8 |
| 20260905060040 | 82 | 50 | 12.0 | 19.0 | 0.00 | 0.00 | 0.00 | 43 | 1017.9 |
| 20260905055543 | 82 | 40 | 12.0 | 19.0 | 0.00 | 0.00 | 0.00 | 44 | 1017.9 |
| 20260905055041 | 82 | 64 | 8.0 | 17.0 | 0.00 | 0.00 | 0.00 | 44 | 1017.8 |
| 20260905054539 | 81 | 50 | 5.0 | 12.0 | 0.00 | 0.00 | 0.00 | 47 | 1017.8 |
| 20260905054035 | 80 | 344 | 0.0 | 3.0 | 0.00 | 0.00 | 0.00 | 50 | 1017.8 |
| 20260905053534 | 79 | 161 | 1.0 | 3.0 | 0.00 | 0.00 | 0.00 | 52 | 1017.7 |
| 20260905053032 | 79 | 177 | 0.0 | 3.0 | 0.00 | 0.00 | 0.00 | 53 | 1017.7 |
| 20260905052533 | 79 | 209 | 0.0 | 2.0 | 0.00 | 0.00 | 0.00 | 53 | 1017.7 |
| 20260905052034 | 78 | 212 | 0.0 | 3.0 | 0.00 | 0.00 | 0.00 | 53 | 1017.6 |
| 20260905051536 | 78 | 279 | 0.0 | 3.0 | 0.00 | 0.00 | 0.00 | 55 | 1017.7 |
| 20260905051026 | 78 | 309 | 1.0 | 5.0 | 0.00 | 0.00 | 0.00 | 55 | 1017.7 |
| 20260905050525 | 77 | 350 | 0.0 | 5.0 | 0.00 | 0.00 | 0.00 | 56 | 1017.7 |
| 20260905050026 | 77 | 332 | 2.0 | 9.0 | 0.00 | 0.00 | 0.00 | 57 | 1017.7 |
| 20260905045523 | 77 | 284 | 2.0 | 9.0 | 0.00 | 0.00 | 0.00 | 57 | 1017.7 |
| 20260905045024 | 77 | 338 | 4.0 | 11.0 | 0.00 | 0.00 | 0.00 | 57 | 1017.5 |
| 20260905044520 | 77 | 331 | 7.0 | 10.0 | 0.00 | 0.00 | 0.00 | 58 | 1017.5 |
| 20260905044019 | 77 | 319 | 5.0 | 10.0 | 0.00 | 0.00 | 0.00 | 58 | 1017.5 |
| 20260905043517 | 76 | 315 | 6.0 | 10.0 | 0.00 | 0.00 | 0.00 | 58 | 1017.4 |
| 20260905043016 | 76 | 302 | 4.0 | 10.0 | 0.00 | 0.00 | 0.00 | 58 | 1017.5 |
| 20260905042518 | 76 | 300 | 6.0 | 10.0 | 0.00 | 0.00 | 0.00 | 58 | 1017.5 |
| 20260905042013 | 76 | 345 | 4.0 | 10.0 | 0.00 | 0.00 | 0.00 | 57 | 1017.4 |
| 20260905041513 | 76 | 340 | 4.0 | 10.0 | 0.00 | 0.00 | 0.00 | 56 | 1017.3 |
| 20260905041013 | 76 | 78 | 1.0 | 4.0 | 0.00 | 0.00 | 0.00 | 56 | 1017.2 |
| 20260905040512 | 76 | 350 | 1.0 | 5.0 | 0.00 | 0.00 | 0.00 | 55 | 1017.1 |
| 20260905040011 | 77 | 336 | 3.0 | 5.0 | 0.00 | 0.00 | 0.00 | 55 | 1017.0 |
| 20260905035511 | 76 | 304 | 1.0 | 4.0 | 0.00 | 0.00 | 0.00 | 56 | 1016.9 |
| 20260905035015 | 76 | 272 | 0.0 | 4.0 | 0.00 | 0.00 | 0.00 | 57 | 1017.0 |
| 20260905034510 | 76 | 281 | 0.0 | 4.0 | 0.00 | 0.00 | 0.00 | 56 | 1017.0 |
| 20260905034010 | 76 | 276 | 1.0 | 5.0 | 0.00 | 0.00 | 0.00 | 56 | 1016.9 |
| 20260905033512 | 76 | 190 | 3.0 | 5.0 | 0.00 | 0.00 | 0.00 | 57 | 1016.9 |
| 20260905033018 | 76 | 330 | 3.0 | 7.0 | 0.00 | 0.00 | 0.00 | 57 | 1016.9 |
| 20260905032509 | 76 | 190 | 5.0 | 7.0 | 0.00 | 0.00 | 0.00 | 57 | 1016.8 |
| 20260905032009 | 76 | 240 | 1.0 | 4.0 | 0.00 | 0.00 | 0.00 | 56 | 1016.9 |
| 20260905031509 | 76 | 270 | 2.0 | 4.0 | 0.00 | 0.00 | 0.00 | 57 | 1016.8 |
| 20260905031008 | 76 | 302 | 2.0 | 4.0 | 0.00 | 0.00 | 0.00 | 56 | 1016.8 |
| 20260905030508 | 76 | 225 | 0.0 | 3.0 | 0.00 | 0.00 | 0.00 | 55 | 1016.9 |
| 20260905030010 | 76 | 182 | 0.0 | 4.0 | 0.00 | 0.00 | 0.00 | 55 | 1016.8 |
| 20260905025507 | 76 | 189 | 2.0 | 4.0 | 0.00 | 0.00 | 0.00 | 54 | 1016.8 |
| 20260905025007 | 76 | 215 | 2.0 | 4.0 | 0.00 | 0.00 | 0.00 | 53 | 1016.8 |
| 20260905024507 | 77 | 231 | 1.0 | 3.0 | 0.00 | 0.00 | 0.00 | 53 | 1016.9 |
| 20260905024008 | 77 | 217 | 1.0 | 3.0 | 0.00 | 0.00 | 0.00 | 51 | 1016.9 |
| 20260905023507 | 77 | 208 | 1.0 | 8.0 | 0.00 | 0.00 | 0.00 | 51 | 1016.9 |
| 20260905023006 | 77 | 205 | 5.0 | 8.0 | 0.00 | 0.00 | 0.00 | 50 | 1016.8 |
| 20260905022507 | 76 | 179 | 7.0 | 9.0 | 0.00 | 0.00 | 0.00 | 52 | 1016.8 |
| 20260905022006 | 76 | 127 | 2.0 | 4.0 | 0.00 | 0.00 | 0.00 | 52 | 1017.0 |
| 20260905021505 | 76 | 126 | 1.0 | 5.0 | 0.00 | 0.00 | 0.00 | 52 | 1016.9 |
| 20260905021005 | 76 | 126 | 2.0 | 4.0 | 0.00 | 0.00 | 0.00 | 53 | 1016.8 |
| 20260905020509 | 76 | 117 | 0.0 | 8.0 | 0.00 | 0.00 | 0.00 | 53 | 1016.9 |
| 20260905020005 | 75 | 119 | 4.0 | 8.0 | 0.00 | 0.00 | 0.00 | 53 | 1016.8 |
| 20260905015504 | 75 | 129 | 1.0 | 4.0 | 0.00 | 0.00 | 0.00 | 53 | 1016.6 |
| 20260905015008 | 76 | 67 | 2.0 | 6.0 | 0.00 | 0.00 | 0.00 | 53 | 1016.9 |
| 20260905014503 | 76 | 11 | 3.0 | 9.0 | 0.00 | 0.00 | 0.00 | 53 | 1016.7 |
| 20260905014003 | 77 | 23 | 5.0 | 11.0 | 0.00 | 0.00 | 0.00 | 52 | 1016.6 |
| 20260905013502 | 78 | 55 | 5.0 | 11.0 | 0.00 | 0.00 | 0.00 | 51 | 1016.5 |
| 20260905013005 | 78 | 50 | 4.0 | 13.0 | 0.00 | 0.00 | 0.00 | 51 | 1016.5 |
| 20260905012502 | 78 | 85 | 6.0 | 16.0 | 0.00 | 0.00 | 0.00 | 50 | 1016.5 |
| 20260905012002 | 78 | 82 | 8.0 | 16.0 | 0.00 | 0.00 | 0.00 | 50 | 1016.6 |
| 20260905011504 | 78 | 79 | 6.0 | 10.0 | 0.00 | 0.00 | 0.00 | 50 | 1016.7 |
| 20260905011001 | 78 | 105 | 7.0 | 13.0 | 0.00 | 0.00 | 0.00 | 50 | 1016.6 |
| 20260905010500 | 78 | 87 | 7.0 | 12.0 | 0.00 | 0.00 | 0.00 | 49 | 1016.6 |
| 20260905010000 | 78 | 105 | 6.0 | 10.0 | 0.00 | 0.00 | 0.00 | 49 | 1016.6 |
| 20260905005600 | 78 | 59 | 5.0 | 9.0 | 0.00 | 0.00 | 0.00 | 49 | 1016.6 |
| 20260905005105 | 78 | 102 | 3.0 | 9.0 | 0.00 | 0.00 | 0.00 | 49 | 1016.6 |
| 20260905004617 | 78 | 117 | 4.0 | 9.0 | 0.00 | 0.00 | 0.00 | 49 | 1016.7 |
| 20260905004058 | 78 | 99 | 3.0 | 9.0 | 0.00 | 0.00 | 0.00 | 48 | 1016.6 |
| 20260905003600 | 78 | 111 | 5.0 | 7.0 | 0.00 | 0.00 | 0.00 | 48 | 1016.7 |
| 20260905003102 | 78 | 107 | 3.0 | 6.0 | 0.00 | 0.00 | 0.00 | 48 | 1016.7 |
| 20260905002557 | 78 | 101 | 1.0 | 6.0 | 0.00 | 0.00 | 0.00 | 48 | 1016.6 |
| 20260905002058 | 78 | 137 | 0.0 | 0.0 | 0.00 | 0.00 | 0.00 | 47 | 1016.6 |
| 20260905001601 | 78 | 141 | 0.0 | 3.0 | 0.00 | 0.00 | 0.00 | 47 | 1016.7 |
| 20260905001059 | 78 | 144 | 0.0 | 6.0 | 0.00 | 0.00 | 0.00 | 47 | 1016.8 |
| 20260905000557 | 77 | 147 | 2.0 | 6.0 | 0.00 | 0.00 | 0.00 | 47 | 1016.7 |
| 20260905000116 | 77 | 99 | 1.0 | 3.0 | 0.00 | 0.00 | 0.00 | 48 | 1016.7 |
| 20260904235558 | 77 | 45 | 0.0 | 0.0 | 0.00 | 0.00 | 0.00 | 48 | 1016.7 |
| 20260904235057 | 77 | 46 | 0.0 | 2.0 | 0.00 | 0.00 | 0.00 | 48 | 1016.8 |
| 20260904234556 | 77 | 45 | 0.0 | 2.0 | 0.00 | 0.00 | 0.00 | 48 | 1016.8 |
| 20260904234056 | 77 | 38 | 0.0 | 0.0 | 0.00 | 0.00 | 0.00 | 49 | 1016.8 |
| 20260904233557 | 77 | 38 | 0.0 | 1.0 | 0.00 | 0.00 | 0.00 | 49 | 1016.7 |
| 20260904233057 | 76 | 39 | 0.0 | 1.0 | 0.00 | 0.00 | 0.00 | 49 | 1016.6 |
| 20260904232657 | 76 | 39 | 0.0 | 2.0 | 0.00 | 0.00 | 0.00 | 50 | 1016.7 |
| 20260904232057 | 76 | 39 | 0.0 | 2.0 | 0.00 | 0.00 | 0.00 | 50 | 1016.7 |
| 20260904231554 | 75 | 36 | 1.0 | 4.0 | 0.00 | 0.00 | 0.00 | 50 | 1016.7 |
| 20260904231053 | 76 | 34 | 2.0 | 4.0 | 0.00 | 0.00 | 0.00 | 51 | 1016.7 |
| 20260904230553 | 76 | 21 | 3.0 | 4.0 | 0.00 | 0.00 | 0.00 | 50 | 1016.9 |
| 20260904230109 | 76 | 26 | 2.0 | 5.0 | 0.00 | 0.00 | 0.00 | 50 | 1016.8 |
| 20260904225553 | 75 | 32 | 2.0 | 5.0 | 0.00 | 0.00 | 0.00 | 51 | 1016.9 |
| 20260904225051 | 75 | 30 | 2.0 | 5.0 | 0.00 | 0.00 | 0.00 | 51 | 1016.9 |
| 20260904224550 | 75 | 28 | 3.0 | 5.0 | 0.00 | 0.00 | 0.00 | 51 | 1016.9 |
| 20260904224050 | 75 | 14 | 3.0 | 5.0 | 0.00 | 0.00 | 0.00 | 51 | 1017.0 |
| 20260904223548 | 76 | 31 | 2.0 | 4.0 | 0.00 | 0.00 | 0.00 | 50 | 1017.0 |
| 20260904223051 | 76 | 31 | 2.0 | 4.0 | 0.00 | 0.00 | 0.00 | 49 | 1017.0 |
| 20260904222549 | 77 | 34 | 1.0 | 4.0 | 0.00 | 0.00 | 0.00 | 49 | 1017.0 |
| 20260904222044 | 78 | 97 | 0.0 | 4.0 | 0.00 | 0.00 | 0.00 | 47 | 1016.9 |
| 20260904221546 | 78 | 82 | 0.0 | 6.0 | 0.00 | 0.00 | 0.00 | 46 | 1017.0 |
| 20260904221042 | 79 | 85 | 1.0 | 6.0 | 0.00 | 0.00 | 0.00 | 45 | 1017.1 |
| 20260904220544 | 79 | 82 | 3.0 | 7.0 | 0.00 | 0.00 | 0.00 | 45 | 1017.2 |
| 20260904220045 | 79 | 89 | 3.0 | 6.0 | 0.00 | 0.00 | 0.00 | 45 | 1017.2 |
| 20260904215543 | 79 | 73 | 3.0 | 8.0 | 0.00 | 0.00 | 0.00 | 45 | 1017.2 |
| 20260904215040 | 79 | 85 | 4.0 | 8.0 | 0.00 | 0.00 | 0.00 | 45 | 1017.1 |
| 20260904214540 | 79 | 90 | 2.0 | 8.0 | 0.00 | 0.00 | 0.00 | 44 | 1017.3 |
| 20260904214039 | 79 | 72 | 2.0 | 9.0 | 0.00 | 0.00 | 0.00 | 44 | 1017.2 |
| 20260904213539 | 80 | 112 | 2.0 | 9.0 | 0.00 | 0.00 | 0.00 | 44 | 1017.2 |
| 20260904213042 | 79 | 53 | 3.0 | 7.0 | 0.00 | 0.00 | 0.00 | 44 | 1017.3 |
| 20260904212540 | 79 | 75 | 1.0 | 4.0 | 0.00 | 0.00 | 0.00 | 45 | 1017.2 |
| 20260904212038 | 79 | 88 | 0.0 | 6.0 | 0.00 | 0.00 | 0.00 | 45 | 1017.3 |
| 20260904211535 | 79 | 88 | 3.0 | 7.0 | 0.00 | 0.00 | 0.00 | 45 | 1017.2 |
| 20260904211035 | 79 | 97 | 0.0 | 3.0 | 0.00 | 0.00 | 0.00 | 46 | 1017.3 |
| 20260904210537 | 79 | 92 | 1.0 | 4.0 | 0.00 | 0.00 | 0.00 | 45 | 1017.2 |
| 20260904210034 | 78 | 98 | 0.0 | 4.0 | 0.00 | 0.00 | 0.00 | 46 | 1017.3 |
| 20260904205534 | 78 | 71 | 0.0 | 4.0 | 0.00 | 0.00 | 0.00 | 46 | 1017.2 |
| 20260904205033 | 79 | 84 | 1.0 | 4.0 | 0.00 | 0.00 | 0.00 | 45 | 1017.3 |
| 20260904204535 | 79 | 101 | 0.0 | 3.0 | 0.00 | 0.00 | 0.00 | 45 | 1017.3 |
| 20260904204034 | 79 | 78 | 1.0 | 3.0 | 0.00 | 0.00 | 0.00 | 46 | 1017.3 |
| 20260904203532 | 78 | 74 | 0.0 | 1.0 | 0.00 | 0.00 | 0.00 | 48 | 1017.4 |
| 20260904203032 | 78 | 73 | 0.0 | 2.0 | 0.00 | 0.00 | 0.00 | 48 | 1017.4 |
| 20260904202532 | 78 | 73 | 0.0 | 2.0 | 0.00 | 0.00 | 0.00 | 48 | 1017.4 |
| 20260904202031 | 79 | 75 | 0.0 | 5.0 | 0.00 | 0.00 | 0.00 | 48 | 1017.4 |
| 20260904201531 | 79 | 76 | 1.0 | 5.0 | 0.00 | 0.00 | 0.00 | 46 | 1017.5 |
| 20260904201033 | 79 | 63 | 0.0 | 3.0 | 0.00 | 0.00 | 0.00 | 46 | 1017.5 |
| 20260904200535 | 79 | 39 | 0.0 | 3.0 | 0.00 | 0.00 | 0.00 | 47 | 1017.4 |
| 20260904200042 | 79 | 34 | 1.0 | 4.0 | 0.00 | 0.00 | 0.00 | 47 | 1017.4 |
| 20260904195532 | 80 | 15 | 2.0 | 5.0 | 0.00 | 0.00 | 0.00 | 47 | 1017.5 |
| 20260904195030 | 80 | 95 | 2.0 | 5.0 | 0.00 | 0.00 | 0.00 | 46 | 1017.5 |
| 20260904194534 | 80 | 84 | 0.0 | 6.0 | 0.00 | 0.00 | 0.00 | 46 | 1017.5 |
| 20260904194030 | 80 | 107 | 2.0 | 8.0 | 0.00 | 0.00 | 0.00 | 47 | 1017.5 |
| 20260904193530 | 80 | 85 | 3.0 | 8.0 | 0.00 | 0.00 | 0.00 | 47 | 1017.5 |
| 20260904193036 | 80 | 87 | 4.0 | 8.0 | 0.00 | 0.00 | 0.00 | 47 | 1017.5 |
| 20260904192529 | 80 | 117 | 2.0 | 4.0 | 0.00 | 0.00 | 0.00 | 46 | 1017.6 |
| 20260904192029 | 80 | 83 | 0.0 | 10.0 | 0.00 | 0.00 | 0.00 | 45 | 1017.6 |
| 20260904191537 | 80 | 86 | 5.0 | 10.0 | 0.00 | 0.00 | 0.00 | 45 | 1017.6 |
| 20260904191029 | 80 | 87 | 2.0 | 5.0 | 0.00 | 0.00 | 0.00 | 44 | 1017.6 |
| 20260904190529 | 80 | 84 | 0.0 | 5.0 | 0.00 | 0.00 | 0.00 | 44 | 1017.6 |
| 20260904190027 | 81 | 90 | 0.0 | 6.0 | 0.00 | 0.00 | 0.00 | 45 | 1017.5 |
| 20260904185528 | 81 | 93 | 2.0 | 6.0 | 0.00 | 0.00 | 0.00 | 45 | 1017.4 |
| 20260904185026 | 81 | 42 | 0.0 | 3.0 | 0.00 | 0.00 | 0.00 | 45 | 1017.3 |
| 20260904184525 | 81 | 25 | 0.0 | 4.0 | 0.00 | 0.00 | 0.00 | 45 | 1017.2 |
| 20260904184025 | 81 | 82 | 2.0 | 4.0 | 0.00 | 0.00 | 0.00 | 45 | 1017.2 |
| 20260904183525 | 81 | 115 | 1.0 | 4.0 | 0.00 | 0.00 | 0.00 | 46 | 1017.2 |
| 20260904183023 | 81 | 113 | 2.0 | 4.0 | 0.00 | 0.00 | 0.00 | 46 | 1017.1 |
| 20260904182523 | 81 | 88 | 1.0 | 6.0 | 0.00 | 0.00 | 0.00 | 45 | 1017.1 |
| 20260904182023 | 81 | 99 | 4.0 | 9.0 | 0.00 | 0.00 | 0.00 | 45 | 1017.0 |
| 20260904181532 | 81 | 69 | 3.0 | 9.0 | 0.00 | 0.00 | 0.00 | 45 | 1017.1 |
| 20260904181022 | 81 | 67 | 3.0 | 8.0 | 0.00 | 0.00 | 0.00 | 46 | 1017.0 |
| 20260904180522 | 81 | 92 | 4.0 | 10.0 | 0.00 | 0.00 | 0.00 | 45 | 1017.0 |
| 20260904180022 | 81 | 61 | 5.0 | 10.0 | 0.00 | 0.00 | 0.00 | 45 | 1017.0 |
| 20260904175521 | 82 | 111 | 4.0 | 9.0 | 0.00 | 0.00 | 0.00 | 45 | 1016.9 |